Location: ???????
(38.3360°N, 23.6977°E)
Time: 21:45:28
(UTC+00:00)

Cosmos 2369 Rocket - Pass Details

Date: 17 November 2025
Orbit: 826 x 853 km, 71.0° (Epoch: 11 December)

Event Time Altitude Azimuth Distance (km) Brightness Sun altitude
Rises 16:17:26 0° 152° (SSE) 3,352 5.2 -13.1°
Reaches altitude 10° 16:21:01 10° 129° (SE) 2,428 4.2 -13.8°
Enters shadow 16:22:37 13° 112° (ESE) 2,198 3.9 -14.1°
